www.pogodaiklimat.ru

Погода и климат >> Архив погоды >> Нигер >> Агадес


ПОГОДА в Агадесе

  • Прогноз погоды в Агадесе
  • Монитор погоды в Агадесе

АРХИВ ПОГОДЫ в Агадесе

Время (UTC), дата Ветер
(напр.,м/с)
 
Видим.   Явления Облачность Т
(С)
Тd
(С)
f
(%)
Тe
(С)
Тes
(С)
Комфортность P
(гПа)
Po
(гПа)
Тmin
(С)
Tmax
(С)
R
(мм)
R24
(мм)
S
(см)
09 17.03 ЮВ 28 2700 м пыльный позёмок 8/0
[Ac cast Ci sp]
+30.3 -0.7 13 +27 +27 жарко 1014.2 958.8
12 17.03 ЮВ 24 4800 м пыльный позёмок 8/0
[Ac cast Ci sp]
+33.0 -1.9 11 +29 +29 жарко 1012.2 957.1
15 17.03 В 20 7000 м пыль 8/0
[Ac cast Ci sp]
+34.5 -5.0 8 +30 +30 жарко 1009.3 954.5
18 17.03 В 18 8000 м пыль 8/0
[Ac cast Ci sp]
+30.5 +2.3 17 +28 +28 жарко 1010.6 955.2 +35.0
06 18.03 В 12 10 км 9/0
[Ac trans Cs]
+26.0 -0.2 18 +24 +24 комфорт 1011.7 956.4 +25.1
09 18.03 В 28 6000 м пыльный позёмок 9/0
[Ac trans Ci sp]
+30.4 -1.7 12 +27 +27 жарко 1012.1 956.8
12 18.03 В 24 4000 м пыльный позёмок 6/0
[Ac cast Ci sp]
+34.0 +1.7 13 +31 +31 жарко 1010.7 955.7
15 18.03 В 22 6000 м пыль 9/0
[Ac As]
+33.8 +1.3 13 +31 +31 жарко 1008.6 953.7
18 18.03 В 16 10 км 9/0
[Ac As]
+32.0 -1.3 12 +29 +29 жарко 1009.0 953.9 +35.4
06 19.03 В 12 10 км 8/0
[Ac cast Ci sp]
+24.5 -0.8 19 +23 +23 комфорт 1009.1 953.9 +24.0
09 19.03 ЮВ 15 10 км 9/0
[Ac As]
+30.8 +1.5 15 +28 +28 жарко 1009.7 954.8
12 19.03 Ю 12 10 км 6/0
[Ac cast Ci sp]
+35.0 +1.1 12 +32 +32 жарко 1008.3 953.6
15 19.03 Ю 10 10 км 5/0
[Ac cast Ci sp]
+36.0 +3.6 13 +33 +33 жарко 1006.0 951.4
18 19.03 В 5 10 км 8/0
[Ac cast Ci sp]
+34.0 +4.8 16 +31 +31 жарко 1006.7 951.8 +37.0
06 20.03 штиль 0 10 км 4/0
[Ac trans Ci sp]
+22.5 +1.8 26 +22 +23 комфорт 1006.8 951.7 +22.3
09 20.03 ЮВ 10 10 км 4/0
[Ci sp]
+32.9 +2.7 15 +30 +31 жарко 1007.5 953.0
12 20.03 З 14 10 км 4/0
[Ci sp]
+38.5 +2.5 11 +35 +35 очень
жарко
1005.9 951.6
15 20.03 З 20 8000 м пыль 8/0
[Ac trans Cs]
+40.2 +6.0 13 +38 +38 очень
жарко
1002.8 948.6
18 20.03 З 8 8000 м пыль 8/0
[Ac trans Cs]
+36.5 +3.4 13 +33 +33 жарко 1004.0 949.3 +40.6
21 20.03 Ю 8 8000 м пыль 8/0
[Ac trans Cs]
+33.0 +9.0 23 +32 +32 жарко 1005.2 951.0
06 21.03 С 4 8000 м пыль 6/0
[Ac cast Ci sp]
+27.0 +3.8 22 +26 +26 жарко 1005.5 951.0 +27.0
09 21.03 СЗ 8 8000 м пыль 6/0
[Ac trans Ci sp]
+35.2 +1.6 12 +32 +33 жарко 1006.7 952.6
12 21.03 СЗ 14 10 км 6/0
[Ci sp]
+38.0 +3.6 12 +35 +35 очень
жарко
1005.3 951.3
15 21.03 СЗ 12 10 км 4/0
[Ci sp]
+38.8 +6.2 14 +36 +36 очень
жарко
1003.6 979.5
18 21.03 С 8 10 км 6/0
[Ac trans Ci sp]
+35.0 +3.3 14 +32 +32 жарко 1004.4 948.0 +39.4
06 22.03 С 8 10 км 8/0
[Ac cast Ci sp]
+26.5 -3.2 14 +24 +24 комфорт 1006.2 951.6 +26.5
09 22.03 С 8 10 км 9/0
[Ac cast Ci sp]
+32.3 -0.5 12 +29 +30 жарко 1007.0 952.5
12 22.03 С 10 10 км 6/0
[Ac trans Ci sp]
+37.0 +3.4 12 +34 +35 очень
жарко
1006.4 952.2
15 22.03 С 8 10 км 6/0
[Ci sp]
+37.4 +0.8 10 +34 +35 очень
жарко
1004.7 950.4
18 22.03 С 8 10 км 9/0
[Ac trans Cs]
+34.0 +3.0 14 +31 +31 жарко 1005.5 950.9 +38.5
06 23.03 штиль 0 10 км 6/0
[Cs]
+24.5 -1.6 18 +23 +23 комфорт 1007.5 952.5 +23.4
09 23.03 В 4 10 км 6/0
[Ci sp]
+33.5 +4.0 16 +31 +39 жарко 1009.1 954.7
12 23.03 штиль 0 10 км 9/0
[Ac cast Ci sp]
+37.2 +8.5 17 +35 +50 очень
жарко
1008.0 953.7
15 23.03 СЗ 10 10 км 9/0
[Ac cast Cs]
+37.5 +8.8 18 +36 +36 очень
жарко
1006.6 952.2
06 24.03 В 18 10 км 6/0
[Ac trans Ci sp]
+25.0 -2.1 17 +23 +23 комфорт 1009.2 954.2 +24.8

 

Местоположение метеостанции Агадес (Нигер): широта 16.97 долгота 7.97 высота над уровнем моря 502 м.

В архиве по умолчанию представлена погода в Агадесе за последнюю неделю. Архивные данные за месяц целиком и за предыдущие месяцы, начиная с января 2011 года, Вы можете получить, выбрав интересующий диапазон дат из раскрывающегося списка и нажав кнопку "Ввод!".


*Определитесь, кто Вы:
робот инопланетянин человек

Внимание! Время в таблицах - всемирное. Для получения местного времени необходимо прибавить поправку, которая равна 1 ч.

Смотрите также архив погоды в соседних городах и на ближайших метеорологических станциях:

Погода в Зиндере (Нигер) (371 км)
Погода в Тахве (Нигер) (371 км)
Погода в Ин-Геззаме (Алжир) (372 км)
Погода в Ин-Геззам аэропорту (Алжир) (372 км)
Погода в Маради (Нигер) (401 км)
Погода в Гуре (Нигер) (416 км)
Погода в Кацине (Нигерия) (440 км)
Погода в Анебарака (Алжир) (445 км)
Погода в Магарьа (Нигер) (456 км)
Погода в Вирнин-Конни (Нигер) (458 км)

Пояснения к столбцам:

Ветер - указаны скорость ветра в м/с - средняя за 10 мин, порывы в срок и между сроками (в фигурных скобках) и направление, откуда дует ветер: С - северный, СВ - северо-восточный, В - восточный, ЮВ - юго-восточный, Ю - южный, ЮЗ - юго-западный, З - западный, СЗ - северо-западный.
Видимость - горизонтальная дальность видимости в метрах или километрах. При видимости от 1 до 10 км при отсутствии осадков обычно наблюдается дымка, при ухудшении видимости до 1 км и менее - туман. В сухую погоду видимость может ухудшаться дымом, пылью или мглою.
Явления - указаны атмосферные явления, наблюдавшиеся в срок или в последний час перед сроком; фигурными скобками обозначены явления, наблюдавшиеся между сроками (за 1-3 часа до срока); квадратными скобками обозначены град или гололедные отложения с указанием их диаметра в мм.
Облачность - указаны через наклонную черту общая и нижняя облачность в баллах и высота нижней границы облаков в метрах; квадратными скобками обозначены формы облаков: Ci - перистые, Cs - перисто-слоистые, Cc - перисто-кучевые, Ac - высококучевые, As - высокослоистые, Sc - слоисто-кучевые, Ns - слоисто-дождевые, Cu - кучевые, Cb - кучево-дождевые. Подробнее классификацию облаков см. в Атласе облаков (PDF).
T - Температура воздуха - температура, измеренная на высоте 2 м над землей.
Td - Температура точки росы - температура, при понижении до которой содержащийся в воздухе водяной пар достигнет насыщения.
f - Относительная влажность воздуха - влажноcть воздуха, измеренная на высоте 2 м над землей.
Te - Эффективная температура - температура, которую ощущает одетый по сезону человек в тени. Характеристика душности погоды. При расчете учитывается влияние влажности воздуха и скорости ветра на теплоощущения человека.
Tes - Эффективная температура на солнце - температура, которую ощущает человек, с поправкой на солнечный нагрев. Характеристика знойности погоды. Зависит от высоты солнца над горизонтом, облачности и скорости ветра. Ночью, в пасмурную погоду, а также при ветре 12 м/с и более поправка равна нулю.
P - Атмосферное давление - приведенное к уровню моря атмосферное давление.
Po - Атмосферное давление - измеренное на уровне метеостанции атмосферное давление.
Tmin - Минимальная температура - минимум температуры воздуха на высоте 2 м над землей.
Tmax - Максимальная температура - максимум температуры воздуха на высоте 2 м над землей.
R - Количество осадков - Количество выпавших осадков за период времени, мм. При наведении курсора мыши на число - период времени, за который выпало указанное количество осадков.
R24 - Количество осадков - Количество выпавших осадков за 24 часа, мм.
S - Снежный покров - Высота снежного покрова, см. При наведении курсора мыши на число - состояние снежного покрова и степень покрытия местности в баллах.